Aérodrome :
LOGIN :

S'inscrire | Disclaimer

   EN    FR    IT 

 










Légende :    VFR   VFR Marginal   IFR   IFR Intensif   IFR Très Intensif
Visi : 
Plafond : 
>= 8 km
>= 3000ft
5 à 8 km
1000 à 3000 ft
1500m à 5 km
500 à 1000 ft
800 à 1500m
200 à 500 ft
< 800m
< 200 ft
Symboles :   Orages  Brouillard  Fortes neiges  Fortes précipitations  Vent > 20 kt
SIGMETs :   Divers  Orages  Givrage  Turbulence  Onde Orograph.  Cendres Volcan.







- Altitude de l'aérodrome : 129 ft
- Code IATA : ZCN


ETHC - Celle

DERNIER METAR :
  • 230720Z 08005KT 5000 BR SCT280 M08/M09 Q1002 WHT BLU TEMPO GRN

METARs EXPIRÉS :
  • 230705Z 08006KT 6000 FEW280 M08/M09 Q1002 WHT BLU TEMPO GRN
  • 230620Z 08005KT 8000 FEW170 M07/M09 Q1002 BLU+BLU+ TEMPO GRN
  • 230520Z 10006KT 8000 BKN160 M07/M09 Q1001 BLU BLU TEMPO GRN

TAF TAF ETHC
Valide du 23 à 06h jusqu'au 23 à 15h UTC


230516Z 2306/2315 10010KT 8000 NSW FEW012 BKN180
TEMPO 2307/2311 11007KT 5000 BR BKN007 BKN200
Pas de NOTAMs connus pour ce terrain.



MET'MAP, la Météo Aéronautique d'un coup d'oeil ! - Copyright ORBIFLY Décembre 2007 - Disclaimer

ORBIFLY MET'MAP TEAM :

Programmation & Développement : Alexandra Zaïnal
Conception & Développement : Baudouin d'Aumeries
Co-Programmation & Développement : Marc-Olivier Méhu
Soutien technique & logistique : Manuel Goepfert

Contact : metmap@orbifly.com




SOURCES & CREDITS :

   NOAA